Location: Les Hautes Granges
(44.2457°N, 5.0090°E)
Time: 04:07:15
(UTC+00:00)

Daily predictions for brighter satellites

Satellite Brightness Start Highest point End
(mag) Time Altitude Azimuth Time Altitude Azimuth Time Altitude Azimuth
Lacrosse 5 4.0 02:44:44 21° NNE 02:44:44 21° NNE 02:47:54 10° ENE
CZ-2C R/B 4.1 02:54:15 10° NNE 02:57:30 29° ENE 02:57:30 29° ENE
USA 267 3.8 02:53:22 10° NE 02:58:58 47° N 02:58:58 47° N
ALOS 4.4 03:08:54 10° NE 03:12:41 24° E 03:14:46 18° SE
Cosmos 2360 Rocket 3.4 03:14:24 10° NNW 03:19:46 40° ENE 03:25:04 10° SE
S3M 4.3 03:21:38 41° SSE 03:23:37 61° E 03:29:40 10° NNE
CENTAUR R/B 4.3 03:18:05 10° NNW 03:25:26 39° NE 03:33:32 10° ESE
Cosmos 1745 Rocket 4.2 03:23:55 10° N 03:30:13 71° E 03:36:33 10° SSE
SL-08 R/B 4.3 03:26:19 10° N 03:31:59 74° NW 03:31:59 74° NW
USA 234 4.2 03:27:29 10° SSE 03:30:55 31° S 03:30:55 31° S
Cosmos 2333 Rocket 4.2 03:29:26 10° N 03:34:16 26° NE 03:39:03 10° ESE
Cosmos 1269 Rocket 4.2 03:35:37 61° N 03:35:37 61° N 03:40:03 10° NNE
SL-08 ROCKET BODY 4.3 03:29:25 10° N 03:35:34 80° W 03:35:37 79° WSW
Cosmos 2221 3.4 03:38:53 44° NNE 03:38:53 44° NNE 03:41:56 10° NNE
Cosmos 2082 Rocket 3.9 03:39:37 20° NNW 03:39:37 20° NNW 03:42:30 10° N
Lacrosse 4 Rocket 3.0 03:39:47 16° N 03:42:55 36° NE 03:46:59 10° ESE
Cosmos 2322 Rocket 2.0 03:50:23 68° WNW 03:50:52 72° WSW 03:56:31 10° SSE
ISS -1.6 03:57:03 21° NNE 03:57:03 21° NNE 03:59:10 10° NE
Meteor 1-4 Rocket 4.0 03:58:28 31° N 03:58:28 31° N 04:00:29 10° N
Cosmos 1500 Rocket 3.4 03:59:35 10° N 04:03:58 88° W 04:08:21 10° S
COSMOS 2428 4.5 03:59:41 10° N 04:04:46 32° NE 04:09:50 10° ESE
ARIANE 5 R/B 4.2 04:01:40 10° NNW 04:03:39 19° NNW 04:03:39 19° NNW
Cosmos 2219 Rocket 3.7 04:00:42 10° NNW 04:05:56 37° NE 04:11:08 10° ESE
Cosmos 1386 Rocket 4.4 03:59:58 10° NNW 04:06:19 66° W 04:12:33 10° S
Cosmos 1606 2.9 04:11:11 34° S 04:12:45 71° E 04:16:39 10° NNE
H-2A R/B 2.3 04:08:55 10° SSE 04:13:10 69° ENE 04:17:20 10° N
Cosmos 1842 Rocket 4.3 04:14:47 35° NW 04:14:47 35° NW 04:17:48 10° N
SJ-6F 4.5 04:10:21 10° NNE 04:14:32 81° ESE 04:16:45 27° S
SL-16 R/B 3.7 04:19:42 19° SSW 04:19:42 19° SSW 04:21:24 10° S
Meteor 2-2 Rocket 4.4 04:14:23 35° SW 04:16:45 57° WNW 04:22:43 10° N
Cosmos 883 Rocket 4.3 04:14:49 10° SSW 04:20:59 78° W 04:27:09 10° N
USA 238 DEB 4.1 04:15:27 10° NW 04:22:44 74° NE 04:30:19 10° SE
USA 238 4.1 04:15:34 10° NW 04:22:51 73° NE 04:30:24 10° SE
Lacrosse 5 2.4 04:23:57 16° NW 04:27:51 56° NE 04:32:49 10° ESE
Cosmos 2251 Rocket 3.5 04:23:51 13° SSW 04:28:39 86° ESE 04:34:04 10° NNE
CZ-4B R/B 3.2 04:26:27 10° SE 04:29:15 31° ENE 04:32:02 10° N
Cosmos 2344 3.5 04:25:35 26° SW 04:30:07 69° NW 04:38:04 10° NE
Cosmos 2322 4.0 04:24:49 10° NNW 04:30:31 69° ENE 04:36:09 10° SSE
Cosmos 2315 Rocket 3.9 04:26:48 10° SSW 04:33:00 77° W 04:39:14 10° N
SeaSat 1 2.4 04:29:06 10° SSE 04:34:01 85° ENE 04:39:00 10° NNW
CZ-3 R/B 4.2 04:20:21 10° SW 04:35:12 24° S 04:41:26 10° SE
ATLAS 5 CENTAUR R/B 3.6 04:33:30 10° S 04:36:41 24° ESE 04:40:07 10° ENE
CZ-2C R/B 3.2 04:32:38 10° N 04:36:42 28° WNW 04:36:54 28° WNW
Cosmos 2237 4.5 04:33:12 10° NW 04:38:36 44° WSW 04:43:57 10° S
Cosmos 1833 4.2 04:36:00 21° SW 04:39:46 63° WNW 04:45:23 10° NNE
METEOR-M 4.0 04:35:01 10° N 04:40:21 70° WNW 04:45:39 10° SSW
USA 267 4.5 04:36:13 10° NE 04:41:43 30° N 04:46:19 14° WNW
Meteor 2-17 Rocket 4.3 04:36:26 10° NNW 04:42:27 68° W 04:48:26 10° S
Geosat 4.5 04:39:44 10° NNE 04:44:26 41° NW 04:46:53 25° WSW
FENGYUN 3A 3.9 04:41:44 10° N 04:46:55 46° WNW 04:51:52 11° SW
Meteor 1-31 Rocket 2.6 04:45:29 10° N 04:49:23 83° WNW 04:53:12 10° SSW
ALOS 2.7 04:45:51 10° N 04:50:11 39° WNW 04:53:17 17° SW
Milstar 3 Cent rocket 4.1 04:49:43 10° SSW 04:51:49 13° S 04:53:55 10° SSE
NOSS 3-2 (A) 4.1 04:46:26 10° NW 04:54:02 68° WSW 05:02:33 10° SSE
H-2A R/B 3.8 04:51:12 10° NNE 04:54:59 48° E 04:58:41 10° S
COSMOS 2487 2.5 04:53:18 23° SW 04:55:08 49° WNW 04:58:29 10° N
USA 276 2.2 04:56:02 25° SW 04:57:45 73° SSE 05:00:56 10° ENE
Cosmos 1328 Rocket 4.3 04:54:04 10° S 04:58:16 55° E 05:02:29 10° NNE
CZ-4B R/B 3.6 04:56:51 10° N 05:00:32 59° WNW 05:04:06 10° SSW
MOS 1 Rocket 3.0 04:56:25 10° S 05:00:44 74° WSW 05:05:16 10° NNW
Cosmos 2333 4.2 04:55:36 10° NNW 05:01:18 63° WSW 05:07:00 10° S
Cosmos 2074 Rocket 4.1 04:55:06 10° N 05:01:20 79° E 05:07:32 10° S
Cosmos 407 Rocket 4.0 04:56:21 10° S 05:01:28 63° ESE 05:06:34 10° NNE
Cosmos 2360 Rocket 2.8 04:58:38 10° NW 05:03:38 33° WSW 05:08:37 10° SSW
Cosmos 1805 Rocket 4.0 05:00:02 10° NNW 05:04:10 38° W 05:08:17 10° SSW
COSMO-SKYMED 1 2.5 05:00:34 10° S 05:04:53 71° WSW 05:09:15 10° NNW
Iridium 51 4.0 05:01:13 10° N 05:05:08 73° W 05:08:44 10° S
Cosmos 614 Rocket 4.0 05:01:31 10° SSW 05:06:42 68° WNW 05:11:56 10° NNE
Cosmos 2237 Rocket 3.8 05:02:18 10° NNW 05:07:32 36° NE 05:12:42 10° ESE
Cosmos 1782 3.1 05:04:17 10° S 05:08:12 70° E 05:12:08 10° NNE
YAOGAN 6 3.6 05:07:42 10° NNE 05:11:08 49° E 05:14:31 10° S
Cosmos 1437 Rocket 3.0 05:07:08 10° S 05:11:12 78° E 05:15:16 10° NNE
Cosmos 1484 Rocket 4.0 05:09:35 10° NNW 05:12:25 21° WNW 05:14:13 15° WSW
CZ-2C R/B 4.1 05:09:56 10° SE 05:15:10 43° ENE 05:20:26 10° N
Cosmos 2221 4.5 05:15:45 11° WNW 05:15:45 11° WNW 05:17:06 10° NW
CENTAUR R/B 3.3 05:08:39 10° NW 05:16:51 72° WSW 05:25:43 10° SSE
Cosmos 2333 Rocket 2.3 05:13:15 10° NNW 05:18:53 56° WSW 05:24:30 10° S
Meteor 1-26 Rocket 4.3 05:14:00 10° S 05:19:39 84° W 05:25:33 10° N
deb Chang Zheng 4 3.5 05:16:04 10° NNE 05:20:22 90° NE 05:24:41 10° SSW
Lacrosse 4 Rocket 2.5 05:17:42 10° NW 05:21:26 26° WSW 05:25:06 10° SSW
Cosmos 2184 Rocket 4.0 05:17:21 10° NNW 05:23:41 74° W 05:30:00 10° S
ADEOS 4.0 05:19:20 10° N 05:24:15 42° WNW 05:29:08 10° SW
Cosmos 2227 Rocket 4.4 05:21:07 10° SSE 05:25:58 30° ESE 05:30:50 10° NE
Cosmos 1666 Rocket 3.8 05:23:11 10° NNW 05:27:21 46° W 05:31:32 10° SSW
NOSS 3-4 (A) 3.4 05:23:26 10° SW 05:29:17 89° NW 05:35:33 10° NE
NOSS 3-4 (C) 3.4 05:23:31 10° SW 05:29:22 90° SE 05:35:39 10° NE
Sich 1 4.0 05:27:11 10° NNW 05:30:52 26° W 05:34:31 10° SW
Envisat 3.1 05:26:15 10° NNE 05:31:22 86° E 05:36:27 10° SSW
NOSS 3-2 (C) 4.2 05:25:44 10° NW 05:33:19 63° WSW 05:41:47 10° SSE
ISS -2.5 05:30:43 10° NW 05:33:53 37° NNE 05:37:02 10° E
CZ-4C R/B 2.0 05:30:50 10° SW 05:35:42 73° NW 05:41:37 10° NE
PSLV R/B 3.9 05:32:03 10° S 05:36:14 74° WSW 05:40:25 10° NNW
Cosmos 2297 Rocket 3.3 05:36:18 10° S 05:41:44 51° ESE 05:47:11 10° NE
Cosmos 1666 4.1 05:39:43 10° N 05:43:22 44° ENE 05:47:02 10° SSE
ATLAS 2AS CENTAUR R/B 3.3 05:36:21 10° SSW 05:44:15 81° ESE 05:52:06 10° NE
